Powrót do katalogu

KUIPER-00009

AktywnyŁącznośćVLEO
NORAD 63725·PAYLOAD·🇺🇸 United States

Wystrzelony Apr 28, 2025 z Cape Canaveral Space Force Station

Loading…

Następne Przeloty (najbliższe 24 godziny)

TLE

ŚwieżeSource: CelesTrak SupGP

Epoka: Sep 15, 2026, 03:22 UTC

1 63725C 25088B   26258.14037037  .00002749  00000+0  17614-3 0  2585
2 63725  51.9029 338.6522 0000309  97.7020 144.0870 15.08016497    13

Śledź KUIPER-00009 w czasie rzeczywistym z AllMySat

Download on the App Store